N7WGJ Weather Reports


time (UTC)temp
C
wind
direction
speed
KPH
gust
KPH
rain 1hr
cm
rain 24hr
cm
rain mn
cm
humidity
%
barometer
mb
20260503223135 26 344 6.4 12.9 0.00 0.00 0.00 42 1011.4
20260503222134 26 73 6.4 12.9 0.00 0.00 0.00 43 1011.5
20260503221135 26 323 4.8 14.5 0.00 0.00 0.00 43 1011.6
20260503220156 25 341 1.6 14.5 0.00 0.00 0.00 44 1011.7
20260503215130 25 340 9.7 14.5 0.00 0.00 0.00 44 1011.9
20260503214131 25 330 6.4 14.5 0.00 0.00 0.00 46 1012.0
20260503213132 25 11 6.4 12.9 0.00 0.00 0.00 45 1012.1
20260503212133 25 13 3.2 16.1 0.00 0.00 0.00 46 1012.2
20260503211133 25 38 1.6 12.9 0.00 0.00 0.00 46 1012.3
20260503210136 25 53 0.0 16.1 0.00 0.00 0.00 46 1012.4
20260503205126 25 51 3.2 17.7 0.00 0.00 0.00 48 1012.5
20260503204123 24 19 4.8 16.1 0.00 0.00 0.00 50 1012.5
20260503203140 23 55 3.2 14.5 0.00 0.00 0.00 51 1012.8
20260503202124 23 346 11.3 19.3 0.00 0.00 0.00 52 1012.9
20260503201123 23 339 6.4 16.1 0.00 0.00 0.00 51 1013.1
20260503200144 23 338 1.6 17.7 0.00 0.00 0.00 52 1013.2
20260503195135 23 333 3.2 11.3 0.00 0.00 0.00 53 1013.3
20260503194134 23 63 8.0 11.3 0.00 0.00 0.00 56 1013.4
20260503193133 22 14 4.8 16.1 0.00 0.00 0.00 58 1013.5
20260503192133 22 29 3.2 11.3 0.00 0.00 0.00 59 1013.7
20260503191131 21 37 3.2 12.9 0.00 0.00 0.00 60 1013.7
20260503190143 21 360 8.0 12.9 0.00 0.00 0.00 59 1013.8
20260503185135 22 327 1.6 14.5 0.00 0.00 0.00 59 1013.8
20260503184135 21 355 4.8 11.3 0.00 0.00 0.00 58 1014.0
20260503183134 21 348 6.4 16.1 0.00 0.00 0.00 59 1014.1
20260503182133 21 355 6.4 14.5 0.00 0.00 0.00 59 1014.2
20260503181134 21 15 1.6 11.3 0.00 0.00 0.00 59 1014.2
20260503180153 20 340 1.6 14.5 0.00 0.00 0.00 62 1014.3
20260503175133 20 350 0.0 14.5 0.00 0.00 0.00 62 1014.4
20260503174132 20 345 4.8 12.9 0.00 0.00 0.00 63 1014.4
20260503173134 20 360 6.4 14.5 0.00 0.00 0.00 63 1014.4
20260503172129 19 355 4.8 16.1 0.00 0.00 0.00 64 1014.5
20260503171131 19 9 1.6 14.5 0.00 0.00 0.00 65 1014.5
20260503170123 18 12 4.8 17.7 0.00 0.00 0.00 66 1014.6
20260503160151 17 12 0.0 11.3 0.00 0.00 0.00 67 1014.7
20260503150138 17 342 3.2 12.9 0.00 0.00 0.00 70 1014.7
20260503140149 12 57 0.0 0.0 0.00 0.00 0.00 90 1014.4
20260503131124 10 57 0.0 0.0 0.00 0.00 0.00 88 1014.3
20260503130145 10 57 0.0 0.0 0.00 0.00 0.00 87 1014.3
20260503120138 11 57 0.0 0.0 0.00 0.00 0.00 82 1014.4
20260503110154 12 57 0.0 0.0 0.00 0.00 0.00 79 1014.4
20260503100146 14 57 0.0 0.0 0.00 0.00 0.00 71 1014.6
20260503090138 16 61 0.0 0.0 0.00 0.00 0.00 62 1014.6
20260503081131 16 38 0.0 0.0 0.00 0.00 0.00 60 1014.8
20260503080133 17 37 0.0 0.0 0.00 0.00 0.00 59 1014.8
20260503072136 17 38 0.0 0.0 0.00 0.00 0.00 59 1014.7
20260503071136 17 38 0.0 0.0 0.00 0.00 0.00 59 1014.7
20260503070157 17 37 0.0 0.0 0.00 0.00 0.00 59 1014.8
20260503060154 16 86 0.0 0.0 0.00 0.00 0.00 66 1014.5
20260503055123 16 40 0.0 0.0 0.00 0.00 0.00 68 1014.5
20260503054140 16 40 0.0 0.0 0.00 0.00 0.00 69 1014.5
20260503053141 16 40 0.0 0.0 0.00 0.00 0.00 69 1014.5
20260503052128 17 40 0.0 0.0 0.00 0.00 0.00 67 1014.5
20260503051130 17 40 0.0 0.0 0.00 0.00 0.00 66 1014.5
20260503050142 17 40 0.0 0.0 0.00 0.00 0.00 66 1014.4
20260503045135 17 38 0.0 0.0 0.00 0.00 0.00 65 1014.3
20260503044137 17 39 0.0 0.0 0.00 0.00 0.00 65 1014.2
20260503043141 17 44 0.0 0.0 0.00 0.00 0.00 64 1014.2
20260503042136 17 37 0.0 0.0 0.00 0.00 0.00 64 1014.1
20260503041140 17 28 0.0 0.0 0.00 0.00 0.00 64 1013.9
20260503040140 17 24 0.0 0.0 0.00 0.00 0.00 63 1013.9
20260503035135 18 36 0.0 0.0 0.00 0.00 0.00 63 1013.8
20260503034131 18 43 0.0 11.3 0.00 0.00 0.00 63 1013.6
20260503033131 18 64 1.6 9.7 0.00 0.00 0.00 62 1013.4
20260503032133 18 17 1.6 11.3 0.00 0.00 0.00 61 1013.3
20260503031140 18 63 0.0 0.0 0.00 0.00 0.00 60 1013.3
20260503030140 19 68 0.0 11.3 0.00 0.00 0.00 58 1013.2
20260503025127 20 36 3.2 16.1 0.00 0.00 0.00 56 1013.1
20260503024129 20 355 6.4 24.1 0.00 0.00 0.00 55 1013.1
20260503023131 20 13 8.0 33.8 0.00 0.00 0.00 54 1013.1
20260503022133 20 340 12.9 29.0 0.00 0.00 0.00 54 1013.0
20260503021132 20 9 12.9 22.5 0.00 0.00 0.00 54 1013.0
20260503020151 20 347 11.3 20.9 0.00 0.00 0.00 54 1013.0
20260503015141 20 306 8.0 25.7 0.00 0.00 0.00 54 1013.0
20260503014142 21 355 6.4 20.9 0.00 0.00 0.00 55 1013.0
20260503013137 21 340 4.8 19.3 0.00 0.00 0.00 55 1013.0
20260503012138 21 77 1.6 16.1 0.00 0.00 0.00 56 1013.2
20260503011142 21 30 4.8 20.9 0.00 0.00 0.00 55 1013.2
20260503010142 21 38 3.2 11.3 0.00 0.00 0.00 55 1013.2
20260503005133 21 47 8.0 22.5 0.00 0.00 0.00 55 1013.3
20260503004138 21 5 4.8 20.9 0.00 0.00 0.00 55 1013.3
20260503003140 21 11 8.0 20.9 0.00 0.00 0.00 53 1013.4
20260503002125 21 360 11.3 20.9 0.00 0.00 0.00 53 1013.4
20260503001125 21 10 16.1 20.9 0.00 0.00 0.00 52 1013.5
20260503000143 21 9 11.3 24.1 0.00 0.00 0.00 54 1013.5
20260502235134 21 14 12.9 20.9 0.00 0.00 0.00 54 1013.6
20260502234135 21 326 9.7 22.5 0.00 0.00 0.00 55 1013.8
20260502233135 21 351 8.0 20.9 0.00 0.00 0.00 53 1014.0
20260502232134 21 26 12.9 29.0 0.00 0.00 0.00 53 1014.0
20260502231133 21 355 3.2 25.7 0.00 0.00 0.00 55 1014.1
20260502230154 21 343 9.7 29.0 0.00 0.00 0.00 53 1014.3
20260502225129 22 346 14.5 24.1 0.00 0.00 0.00 52 1014.6
20260502224124 21 338 9.7 20.9 0.00 0.00 0.00 56 1014.8